Regional Weather Roundup
Issued by NWS

Home | Current Version | Previous Version | Text Only | Print | Product List | Glossary On
Versions: 1 2 3 4 5 6 7 8 9 10 11 12 13 14 15 16 17 18 19 20 21 22 23 24 25 26 27 28 29 30 31 32 33 34 35 36 37 38 39 40 41 42 43 44 45 46 47 48 49 50
000
ASUS43 KIND 231209
RWRIN

WEATHER ROUNDUP FOR INDIANA
NATIONAL WEATHER SERVICE INDIANAPOLIS IN
800 AM EDT MON OCT 23 2017

NOTE: "FAIR" INDICATES FEW OR NO CLOUDS BELOW 12,000 FEET WITH NO
SIGNIFICANT WEATHER AND/OR OBSTRUCTIONS TO VISIBILITY.

* - STATION DOES NOT REPORT WEATHER SUCH AS PRECIPITATION OR FOG.

+ - STATION NOT QUALITY CONTROLLED BY THE NATIONAL WEATHER SERVICE.
    USE DATA WITH CAUTION...ESPECIALLY DEWPOINT AND RELATIVE
    HUMIDITY OBSERVATIONS.

INZ001>003-010>013-019-020-231300-
NORTHWEST INDIANA

CITY           SKY/WX    TMP DP  RH WIND       PRES   REMARKS
GARY /AIRPORT/ HVY RAIN  55  54  94 N20G31    29.86F
KNOX *+        CLOUDY    55  54  94 N8        29.82S
LA PORTE +     RAIN      55  54  97 NE9       29.83F
6HR MIN TEMP:  55; 6HR MAX TEMP:  56;

MICHIGAN CITY+ HVY RAIN  54  54 100 N15G22    29.84F
MONTICELLO +   LGT RAIN  60  58  94 SE5       29.78F
6HR MIN TEMP:  56; 6HR MAX TEMP:  60; 6HR PCP:  0.43;

RENSSELAER +   RAIN      55  52  88 N10       29.81F
VALPARAISO     RAIN      57  56  96 N8        29.83F FOG
6HR MIN TEMP:  57; 6HR MAX TEMP:  57; 6HR PCP:  0.91;


$$

LMZ046-743>745-231300-
SOUTHERN LAKE MICHIGAN

STATION/POSITION TIME  TEMP    WIND        PRES    WAVE
                       AIR SEA DIR/SP/G            HT
                 (UTC) (F)     (DEG/KT/KT) (MB)    (FT)
BURNS HARBOR     1140   56      10/ 23/ 26 1010.8F
MICHIGAN CITY    1140   56      10/ 23/ 27   N/A
5NW MICH CITY    1200   56 58   10/ 19/ 25   N/A     6

$$

INZ004-005-014>016-021>024-231300-
NORTH CENTRAL INDIANA

CITY           SKY/WX    TMP DP  RH WIND       PRES   REMARKS
ELKHART        RAIN      57  55  94 CALM      29.83F
GOSHEN         LGT RAIN  61  55  81 SE3       29.82F
6HR MIN TEMP:  60; 6HR MAX TEMP:  62; 6HR PCP:  0.04;

LOGANSPORT +   LGT RAIN  59  57  94 SE8       29.81F
PERU/GRISSOM   LGT RAIN  60  60  98 SE7       29.80F
6HR MIN TEMP:  60; 6HR MAX TEMP:  66; 6HR PCP:  0.10;

SOUTH BEND     RAIN      55  55 100 N8        29.83F FOG
6HR MIN TEMP:  55; 6HR MAX TEMP:  56; 6HR PCP:  0.23;

WARSAW +       LGT RAIN  61  55  82 SE5       29.83F

$$

INZ006>009-017-018-025>027-231300-
NORTHEAST INDIANA

CITY           SKY/WX    TMP DP  RH WIND       PRES   REMARKS
AUBURN +       LGT RAIN  63  50  63 SE3       29.86F
FORT WAYNE     LGT RAIN  61  53  75 SE7       29.85F
6HR MIN TEMP:  61; 6HR MAX TEMP:  66; 6HR PCP: TRACE;

HUNTINGTON +   LGT RAIN  60  56  88 SE5       29.83F
6HR MIN TEMP:  60; 6HR MAX TEMP:  65; 6HR PCP:  0.02;

KENDALLVILLE + CLOUDY    59  53  80 SE6       29.85F

$$

INZ028-029-035-036-043>045-051>053-231300-
WEST CENTRAL INDIANA

CITY           SKY/WX    TMP DP  RH WIND       PRES   REMARKS
CRAWFORDSVL +  DRIZZLE   61  61 100 SE8       29.77F
GREENCASTLE +  CLOUDY    61  61 100 SE6       29.79F
LAFAYETTE      CLOUDY    62  62 100 SE6       29.77F
6HR MIN TEMP:  56; 6HR MAX TEMP:  62; 6HR PCP:  0.32;

TERRE HAUTE    CLOUDY    64  62  93 SE6       29.76F
6HR MIN TEMP:  61; 6HR MAX TEMP:  65; 6HR PCP:  0.42;


$$

INZ030>032-037>040-046>048-054>057-064-065-231300-
CENTRAL INDIANA

CITY           SKY/WX    TMP DP  RH WIND       PRES   REMARKS
CP ATTERBURY + CLOUDY    61  59  94 SE7       29.78F
COLUMBUS       LGT RAIN  61  57  88 SE7       29.78F
FRANKFORT +    DRIZZLE   63  62  94 SE10      29.80F
6HR MIN TEMP:  62; 6HR MAX TEMP:  67; 6HR PCP:  0.30;

GREENWOOD *+   CLOUDY    64  60  87 SE6       29.80F
6HR MIN TEMP:  64; 6HR MAX TEMP:  70;

INDIANAPOLIS   CLOUDY    62  59  90 SE9       29.77F
6HR MIN TEMP:  62; 6HR MAX TEMP:  67; 6HR PCP:  0.13;

-EAGLE CREEK   LGT RAIN  62  58  86 SE5       29.77F
6HR MIN TEMP:  62; 6HR MAX TEMP:  68; 6HR PCP:  0.17;

KOKOMO +       LGT RAIN  60  58  92 SE8       29.81F
6HR MIN TEMP:  60; 6HR MAX TEMP:  66; 6HR PCP:  0.05;

MARION +       LGT RAIN  59  55  88 SE7       29.82
MT COMFORT *+  MOCLDY    59  59 100 SE9       29.80F
SHELBYVILLE    CLOUDY    62  56  80 E10       29.77F
6HR MIN TEMP:  62; 6HR MAX TEMP:  68;

ZIONSVILLE +   RAIN      59  58  97 CALM      29.80F
6HR MIN TEMP:  59; 6HR MAX TEMP:  66; 6HR PCP:  0.13;


$$

INZ033-034-041-042-049-050-058-059-231300-
EAST CENTRAL INDIANA

CITY           SKY/WX    TMP DP  RH WIND       PRES   REMARKS
MUNCIE         CLOUDY    64  55  72 SE6       29.82F
6HR MIN TEMP:  63; 6HR MAX TEMP:  68; 6HR PCP: TRACE;

RICHMOND +     CLOUDY    59  54  82 SE9       29.86F

$$

INZ060-061-067>069-081>083-085>088-231300-
SOUTHWEST INDIANA

CITY           SKY/WX    TMP DP  RH WIND       PRES   REMARKS
EVANSVILLE     LGT RAIN  54  53  97 NW13      29.75F
6HR MIN TEMP:  54; 6HR MAX TEMP:  65; 6HR PCP:  0.53;

HUNTINGBURG +  LGT RAIN  60  59  96 E8        29.78F
6HR MIN TEMP:  60; 6HR MAX TEMP:  66; 6HR PCP:  0.63;

WASHINGTON +   LGT RAIN  60  58  94 S10       29.77F
                                      6HR PCP:  0.44;


$$

INZ062-063-066-070>080-084-089>092-231300-
SOUTH CENTRAL AND SOUTHEAST INDIANA

CITY           SKY/WX    TMP DP  RH WIND       PRES   REMARKS
BEDFORD +      DRIZZLE   63  59  88 S6        29.79
BLOOMINGTON    CLOUDY    62  60  93 S3        29.78S
6HR MIN TEMP:  62; 6HR MAX TEMP:  68;

MADISON *+     CLOUDY    61  59  94 SE7       29.83F
NORTH VERNON + HVY RAIN  61  57  88 E8        29.79F
SEYMOUR +      LGT RAIN  63  61  94 S14G21    29.78

$$




USA.gov is the U.S. government's official web portal to all federal, state and local government web resources and services.